User: anonymous   Login
Location: Erskine
(52.3216°N, 112.8806°W)
Time: 08:22:57
(UTC+00:00)
Language:

ZACube-1 - Orbit

View from above orbital plane
View from above orbital plane
View from above satellite
View from above satellite

Ground track
Ground track

The orbit data is extracted from the following two-line orbital elements,

1 39417U 13066B   23336.87281174  .00006603  00000-0  72879-3 0  9996
2 39417  97.7099 293.0029 0055002  91.8801 268.8716 14.86666067542246
Epoch (UTC): 02 December 2023 20:56:50
Eccentricity: 0.0055002
inclination: 97.7099°
perigee height: 570 km
apogee height: 647 km
right ascension of ascending node: 293.0029°
argument of perigee: 91.8801°
revolutions per day: 14.86666067
mean anomaly at epoch: 268.8716°
orbit number at epoch: 54224

The dashed part of the orbit path shows where the satellite is in the earth's shadow,  

DLR